STARLINK-2008 (47603 NORAD) Tracking and Keplerian Element Data
This shows tracking and keplerian element data for the satellite.
Feedback or suggestion? Click here.
Element | Value |
Catalog | 47603 |
Name | STARLINK-2008 |
Epoch Orbit | 176 |
Epoch Day | 59.91667824 |
Epoch Year | 2021 |
RAAN | 3.0287 |
Inclination | 53.0539 |
Eccentricity | 0.0001216 |
Argument of Perigee | 59.894 |
Mean Anonmoly | 234.5006 |
Mean Motion | 15.56870518 |
Decay Rate | -0.00929487 |
L1 | 1 47603U 21009BH 21059.91667824 -.00929487 00000-0 -14012-1 0 9992 |
L2 | 2 47603 53.0539 3.0287 0001216 59.8940 234.5006 15.56870518 1762 |
Live tracking and technical data element details for STARLINK-2008 (NORAD 47603). STARLINK-2008 can be tracked NOW for your location showing map with azimuth and elevation plus other details from your city location.
Track the satellite on the map from your city or location and see movement details for azimuth, elevation, latitude, longitude, range, height, and movement on the map or in text.
IsCatalogInMostPopularTable: catalog: 47603, numindb: 2
Update: records affected: 1
GetName: 47603 STARLINK-2008
Hit Count: updated at: Mon, 01 Mar 2021 16:53:08 GMT